| time (UTC) | temp C | wind direction | speed KPH | gust KPH | rain 1hr cm | rain 24hr cm | rain mn cm | humidity % | barometer mb |
| 20260508074817 | 16 | 180 | 8.0 | 0.0 | 0.00 | 0.00 | 0.00 | 88 | 1014.0 |
| 20260508073320 | 16 | 180 | 8.0 | 0.0 | 0.00 | 0.00 | 0.00 | 88 | 1014.0 |
| 20260508071820 | 16 | 150 | 9.7 | 0.0 | 0.00 | 0.00 | 0.00 | 88 | 1014.0 |
| 20260508070321 | 16 | 150 | 9.7 | 0.0 | 0.00 | 0.00 | 0.00 | 88 | 1014.0 |
| 20260508064821 | 15 | 160 | 8.0 | 0.0 | 0.00 | 0.00 | 0.00 | 88 | 1014.0 |
| 20260508063320 | 15 | 160 | 8.0 | 0.0 | 0.00 | 0.00 | 0.00 | 88 | 1014.0 |
| 20260508061817 | 15 | 190 | 4.8 | 0.0 | 0.00 | 0.00 | 0.00 | 88 | 1014.0 |
| 20260508060320 | 15 | 190 | 4.8 | 0.0 | 0.00 | 0.00 | 0.00 | 88 | 1014.0 |
| 20260508054818 | 13 | 180 | 3.2 | 0.0 | 0.00 | 0.00 | 0.00 | 94 | 1014.0 |
| 20260508053320 | 13 | 180 | 3.2 | 0.0 | 0.00 | 0.00 | 0.00 | 94 | 1014.0 |
| 20260508051821 | 13 | 0 | 0.0 | 0.0 | 0.00 | 0.00 | 0.00 | 94 | 1014.0 |
| 20260508050321 | 13 | 0 | 0.0 | 0.0 | 0.00 | 0.00 | 0.00 | 94 | 1014.0 |
| 20260508044820 | 13 | 0 | 0.0 | 0.0 | 0.00 | 0.00 | 0.00 | 94 | 1014.0 |
| 20260508043320 | 13 | 0 | 0.0 | 0.0 | 0.00 | 0.00 | 0.00 | 94 | 1014.0 |
| 20260508041818 | 12 | 0 | 0.0 | 0.0 | 0.00 | 0.00 | 0.00 | 100 | 1014.0 |
| 20260508040321 | 12 | 0 | 0.0 | 0.0 | 0.00 | 0.00 | 0.00 | 100 | 1014.0 |
| 20260508034818 | 12 | 3.2 | 0.0 | 0.00 | 0.00 | 0.00 | 100 | 1014.0 | |
| 20260508033320 | 12 | 3.2 | 0.0 | 0.00 | 0.00 | 0.00 | 100 | 1014.0 | |
| 20260508031820 | 13 | 320 | 4.8 | 0.0 | 0.00 | 0.00 | 0.00 | 94 | 1014.0 |
| 20260508030321 | 13 | 320 | 4.8 | 0.0 | 0.00 | 0.00 | 0.00 | 94 | 1014.0 |
| 20260508024820 | 13 | 250 | 9.7 | 0.0 | 0.00 | 0.00 | 0.00 | 88 | 1014.0 |
| 20260508023321 | 13 | 250 | 9.7 | 0.0 | 0.00 | 0.00 | 0.00 | 88 | 1014.0 |
| 20260508021821 | 13 | 280 | 11.3 | 0.0 | 0.00 | 0.00 | 0.00 | 88 | 1013.0 |
| 20260508020320 | 13 | 280 | 11.3 | 0.0 | 0.00 | 0.00 | 0.00 | 88 | 1013.0 |
| 20260508014820 | 13 | 260 | 14.5 | 0.0 | 0.00 | 0.00 | 0.00 | 82 | 1013.0 |
| 20260508013320 | 13 | 260 | 14.5 | 0.0 | 0.00 | 0.00 | 0.00 | 82 | 1013.0 |
| 20260508011820 | 13 | 300 | 11.3 | 0.0 | 0.00 | 0.00 | 0.00 | 77 | 1013.0 |
| 20260508010320 | 13 | 300 | 11.3 | 0.0 | 0.00 | 0.00 | 0.00 | 77 | 1013.0 |
| 20260508004820 | 12 | 220 | 8.0 | 0.0 | 0.00 | 0.00 | 0.00 | 82 | 1013.0 |
| 20260508003320 | 12 | 220 | 8.0 | 0.0 | 0.00 | 0.00 | 0.00 | 82 | 1013.0 |
| 20260508001819 | 13 | 1.6 | 0.0 | 0.00 | 0.00 | 0.00 | 77 | 1013.0 | |
| 20260508000320 | 13 | 1.6 | 0.0 | 0.00 | 0.00 | 0.00 | 77 | 1013.0 | |
| 20260507234821 | 15 | 310 | 8.0 | 0.0 | 0.00 | 0.00 | 0.00 | 72 | 1013.0 |
| 20260507233320 | 15 | 310 | 8.0 | 0.0 | 0.00 | 0.00 | 0.00 | 72 | 1013.0 |
| 20260507231820 | 15 | 230 | 16.1 | 0.0 | 0.00 | 0.00 | 0.00 | 72 | 1013.0 |
| 20260507230320 | 15 | 230 | 16.1 | 0.0 | 0.00 | 0.00 | 0.00 | 72 | 1013.0 |
| 20260507224820 | 15 | 230 | 16.1 | 0.0 | 0.00 | 0.00 | 0.00 | 68 | 1013.0 |
| 20260507223437 | 15 | 230 | 16.1 | 0.0 | 0.00 | 0.00 | 0.00 | 68 | 1013.0 |
| 20260507221820 | 15 | 210 | 12.9 | 0.0 | 0.00 | 0.00 | 0.00 | 68 | 1013.0 |
| 20260507220320 | 15 | 210 | 12.9 | 0.0 | 0.00 | 0.00 | 0.00 | 68 | 1013.0 |
| 20260507214820 | 13 | 4.8 | 0.0 | 0.00 | 0.00 | 0.00 | 72 | 1013.0 | |
| 20260507213322 | 13 | 4.8 | 0.0 | 0.00 | 0.00 | 0.00 | 72 | 1013.0 | |
| 20260507211820 | 13 | 150 | 11.3 | 0.0 | 0.00 | 0.00 | 0.00 | 72 | 1013.0 |
| 20260507210320 | 13 | 150 | 11.3 | 0.0 | 0.00 | 0.00 | 0.00 | 72 | 1013.0 |
| 20260507204820 | 15 | 150 | 11.3 | 0.0 | 0.00 | 0.00 | 0.00 | 68 | 1013.0 |
| 20260507203320 | 15 | 150 | 11.3 | 0.0 | 0.00 | 0.00 | 0.00 | 68 | 1013.0 |
| 20260507201820 | 15 | 160 | 12.9 | 0.0 | 0.00 | 0.00 | 0.00 | 68 | 1013.0 |
| 20260507200321 | 15 | 160 | 12.9 | 0.0 | 0.00 | 0.00 | 0.00 | 68 | 1013.0 |
| 20260507194826 | 15 | 150 | 14.5 | 0.0 | 0.00 | 0.00 | 0.00 | 68 | 1013.0 |
| 20260507193320 | 15 | 150 | 14.5 | 0.0 | 0.00 | 0.00 | 0.00 | 68 | 1013.0 |
| 20260507191820 | 17 | 150 | 12.9 | 0.0 | 0.00 | 0.00 | 0.00 | 59 | 1013.0 |
| 20260507190321 | 17 | 150 | 12.9 | 0.0 | 0.00 | 0.00 | 0.00 | 59 | 1013.0 |
| 20260507184822 | 17 | 170 | 17.7 | 0.0 | 0.00 | 0.00 | 0.00 | 56 | 1013.0 |
| 20260507183320 | 17 | 170 | 17.7 | 0.0 | 0.00 | 0.00 | 0.00 | 56 | 1013.0 |
| 20260507181820 | 18 | 180 | 14.5 | 0.0 | 0.00 | 0.00 | 0.00 | 49 | 1013.0 |
| 20260507180320 | 18 | 180 | 14.5 | 0.0 | 0.00 | 0.00 | 0.00 | 49 | 1013.0 |
| 20260507174820 | 20 | 170 | 12.9 | 0.0 | 0.00 | 0.00 | 0.00 | 46 | 1013.0 |
| 20260507173321 | 20 | 170 | 12.9 | 0.0 | 0.00 | 0.00 | 0.00 | 46 | 1013.0 |
| 20260507171821 | 20 | 160 | 20.9 | 0.0 | 0.00 | 0.00 | 0.00 | 46 | 1012.0 |
| 20260507170320 | 20 | 160 | 20.9 | 0.0 | 0.00 | 0.00 | 0.00 | 46 | 1012.0 |
| 20260507164821 | 20 | 150 | 24.1 | 0.0 | 0.00 | 0.00 | 0.00 | 49 | 1012.0 |
| 20260507163320 | 20 | 150 | 24.1 | 0.0 | 0.00 | 0.00 | 0.00 | 49 | 1012.0 |
| 20260507161820 | 21 | 150 | 25.7 | 0.0 | 0.00 | 0.00 | 0.00 | 46 | 1012.0 |
| 20260507160321 | 21 | 150 | 25.7 | 0.0 | 0.00 | 0.00 | 0.00 | 46 | 1012.0 |
| 20260507154820 | 22 | 140 | 32.2 | 0.0 | 0.00 | 0.00 | 0.00 | 44 | 1012.0 |
| 20260507153320 | 22 | 140 | 32.2 | 0.0 | 0.00 | 0.00 | 0.00 | 44 | 1012.0 |
| 20260507151820 | 22 | 150 | 33.8 | 0.0 | 0.00 | 0.00 | 0.00 | 41 | 1012.0 |
| 20260507150320 | 22 | 150 | 33.8 | 0.0 | 0.00 | 0.00 | 0.00 | 41 | 1012.0 |
| 20260507144820 | 23 | 160 | 32.2 | 0.0 | 0.00 | 0.00 | 0.00 | 36 | 1012.0 |
| 20260507143322 | 23 | 160 | 32.2 | 0.0 | 0.00 | 0.00 | 0.00 | 36 | 1012.0 |
| 20260507141820 | 23 | 150 | 33.8 | 0.0 | 0.00 | 0.00 | 0.00 | 39 | 1012.0 |
| 20260507140320 | 23 | 150 | 33.8 | 0.0 | 0.00 | 0.00 | 0.00 | 39 | 1012.0 |
| 20260507134821 | 23 | 150 | 37.0 | 0.0 | 0.00 | 0.00 | 0.00 | 39 | 1012.0 |
| 20260507133320 | 23 | 150 | 37.0 | 0.0 | 0.00 | 0.00 | 0.00 | 39 | 1012.0 |
| 20260507131817 | 23 | 140 | 33.8 | 0.0 | 0.00 | 0.00 | 0.00 | 39 | 1012.0 |
| 20260507130320 | 23 | 140 | 33.8 | 0.0 | 0.00 | 0.00 | 0.00 | 39 | 1012.0 |
| 20260507124820 | 23 | 140 | 33.8 | 0.0 | 0.00 | 0.00 | 0.00 | 41 | 1013.0 |
| 20260507123358 | 23 | 140 | 33.8 | 0.0 | 0.00 | 0.00 | 0.00 | 41 | 1013.0 |
| 20260507121820 | 23 | 150 | 32.2 | 0.0 | 0.00 | 0.00 | 0.00 | 41 | 1013.0 |
| 20260507120320 | 23 | 150 | 32.2 | 0.0 | 0.00 | 0.00 | 0.00 | 41 | 1013.0 |
| 20260507114820 | 25 | 130 | 25.7 | 0.0 | 0.00 | 0.00 | 0.00 | 44 | 1013.0 |
| 20260507113337 | 22 | 130 | 24.1 | 0.0 | 0.00 | 0.00 | 0.00 | 44 | 1014.0 |
| 20260507111820 | 22 | 130 | 24.1 | 0.0 | 0.00 | 0.00 | 0.00 | 44 | 1014.0 |
| 20260507110320 | 22 | 130 | 24.1 | 0.0 | 0.00 | 0.00 | 0.00 | 44 | 1014.0 |
| 20260507104819 | 22 | 120 | 24.1 | 0.0 | 0.00 | 0.00 | 0.00 | 47 | 1014.0 |
| 20260507103320 | 22 | 120 | 24.1 | 0.0 | 0.00 | 0.00 | 0.00 | 47 | 1014.0 |
| 20260507101820 | 22 | 130 | 20.9 | 0.0 | 0.00 | 0.00 | 0.00 | 47 | 1014.0 |
| 20260507100321 | 22 | 130 | 20.9 | 0.0 | 0.00 | 0.00 | 0.00 | 47 | 1014.0 |
| 20260507094820 | 22 | 130 | 16.1 | 35.4 | 0.00 | 0.00 | 0.00 | 50 | 1014.0 |
| 20260507093320 | 22 | 130 | 16.1 | 35.4 | 0.00 | 0.00 | 0.00 | 50 | 1014.0 |
| 20260507091822 | 22 | 160 | 12.9 | 0.0 | 0.00 | 0.00 | 0.00 | 47 | 1014.0 |
| 20260507090320 | 22 | 160 | 12.9 | 0.0 | 0.00 | 0.00 | 0.00 | 47 | 1014.0 |
| 20260507084820 | 22 | 160 | 11.3 | 0.0 | 0.00 | 0.00 | 0.00 | 50 | 1014.0 |
| 20260507083320 | 22 | 160 | 11.3 | 0.0 | 0.00 | 0.00 | 0.00 | 50 | 1014.0 |
| 20260507081820 | 21 | 150 | 11.3 | 0.0 | 0.00 | 0.00 | 0.00 | 50 | 1014.0 |
| 20260507080321 | 21 | 150 | 11.3 | 0.0 | 0.00 | 0.00 | 0.00 | 50 | 1014.0 |